DAL247 BIKF-KJFK

Flight info

Callsign DAL247
Flight time N/A
Altitude 36000
Route DELES2A DELES DCT DOPOD DCT 61N030W 5630N04000W 54N050W DCT NEEKO/N0467F360 N616B TOPPS DCT ENE PARCH4
Aircraft B763/H-SDE3FGHIM3RWXY/LB1

Departure

Time 2026-05-06 08:08
Airport Keflavik International Airport (BIKF)

Arrival

Time N/A
Airport John F. Kennedy International Airport (KJFK)
Time Latitude Longitude Altitude Speed Heading
2026-05-06 07:46 63.99549 -22.62597 186 ft 0 kts 90°
2026-05-06 07:53 63.99549 -22.62624 186 ft 2 kts 92°
2026-05-06 07:53 63.99557 -22.62660 186 ft 3 kts 148°
2026-05-06 07:53 63.99569 -22.62670 186 ft 0 kts 179°
2026-05-06 07:53 63.99568 -22.62670 186 ft 0 kts 179°
2026-05-06 07:54 63.99567 -22.62670 186 ft 0 kts 179°
2026-05-06 07:54 63.99567 -22.62669 186 ft 0 kts 179°
2026-05-06 07:55 63.99562 -22.62670 186 ft 1 kts 184°
2026-05-06 07:55 63.99552 -22.62678 186 ft 1 kts 207°
2026-05-06 07:55 63.99537 -22.62700 186 ft 4 kts 215°
2026-05-06 07:55 63.99504 -22.62754 186 ft 8 kts 213°
2026-05-06 07:56 63.99446 -22.62819 186 ft 11 kts 194°
2026-05-06 07:56 63.99361 -22.62845 186 ft 14 kts 181°
2026-05-06 07:56 63.99262 -22.62850 186 ft 14 kts 181°
2026-05-06 07:56 63.99172 -22.62819 186 ft 12 kts 129°
2026-05-06 07:57 63.99177 -22.62673 186 ft 9 kts 74°
2026-05-06 07:57 63.99184 -22.62534 186 ft 9 kts 90°
2026-05-06 07:57 63.99184 -22.62385 186 ft 10 kts 90°
2026-05-06 07:57 63.99184 -22.62223 186 ft 11 kts 90°
2026-05-06 07:58 63.99184 -22.62047 186 ft 11 kts 90°
2026-05-06 07:58 63.99184 -22.61859 186 ft 12 kts 90°
2026-05-06 07:58 63.99184 -22.61659 186 ft 13 kts 90°
2026-05-06 07:58 63.99183 -22.61447 186 ft 14 kts 90°
2026-05-06 07:59 63.99183 -22.61232 186 ft 13 kts 90°
2026-05-06 07:59 63.99180 -22.61038 186 ft 11 kts 100°
2026-05-06 07:59 63.99142 -22.60912 186 ft 8 kts 168°
2026-05-06 07:59 63.99089 -22.60905 186 ft 8 kts 180°
2026-05-06 08:00 63.99038 -22.60905 186 ft 7 kts 180°
2026-05-06 08:00 63.98988 -22.60905 186 ft 7 kts 180°
2026-05-06 08:00 63.98941 -22.60905 186 ft 7 kts 177°
2026-05-06 08:00 63.98891 -22.60899 186 ft 8 kts 177°
2026-05-06 08:01 63.98836 -22.60893 186 ft 8 kts 177°
2026-05-06 08:01 63.98774 -22.60886 186 ft 9 kts 177°
2026-05-06 08:01 63.98706 -22.60879 186 ft 10 kts 179°
2026-05-06 08:01 63.98633 -22.60881 186 ft 11 kts 181°
2026-05-06 08:02 63.98554 -22.60883 186 ft 12 kts 181°
2026-05-06 08:02 63.98469 -22.60886 186 ft 13 kts 181°
2026-05-06 08:02 63.98377 -22.60889 186 ft 14 kts 181°
2026-05-06 08:02 63.98278 -22.60889 186 ft 15 kts 179°
2026-05-06 08:03 63.98173 -22.60884 186 ft 16 kts 179°
2026-05-06 08:03 63.98060 -22.60879 186 ft 17 kts 179°
2026-05-06 08:03 63.97942 -22.60873 186 ft 18 kts 179°
2026-05-06 08:03 63.97816 -22.60868 186 ft 19 kts 179°
2026-05-06 08:04 63.97685 -22.60862 186 ft 19 kts 179°
2026-05-06 08:04 63.97545 -22.60855 186 ft 20 kts 179°
2026-05-06 08:04 63.97403 -22.60849 186 ft 21 kts 179°
2026-05-06 08:04 63.97253 -22.60842 186 ft 22 kts 179°
2026-05-06 08:05 63.97097 -22.60835 186 ft 23 kts 179°
2026-05-06 08:05 63.96936 -22.60835 186 ft 24 kts 180°
2026-05-06 08:05 63.96770 -22.60854 186 ft 24 kts 182°
2026-05-06 08:05 63.96610 -22.60841 186 ft 17 kts 178°
2026-05-06 08:06 63.96497 -22.60830 186 ft 14 kts 168°
2026-05-06 08:06 63.96469 -22.60686 186 ft 10 kts 87°
2026-05-06 08:06 63.96486 -22.60573 186 ft 6 kts 43°
2026-05-06 08:06 63.96519 -22.60543 186 ft 6 kts 358°
2026-05-06 08:07 63.96532 -22.60544 186 ft 0 kts 358°
2026-05-06 08:07 63.96609 -22.60549 186 ft 45 kts 358°
2026-05-06 08:07 63.97265 -22.60568 187 ft 142 kts
2026-05-06 08:07 63.98505 -22.60557 422 ft 205 kts
2026-05-06 08:08 64.00068 -22.60545 1027 ft 239 kts
2026-05-06 08:08 64.01768 -22.60512 1782 ft 247 kts
2026-05-06 08:08 64.03476 -22.60514 2490 ft 251 kts
2026-05-06 08:08 64.05335 -22.60908 3161 ft 291 kts 351°
2026-05-06 08:09 64.06653 -22.62095 3657 ft 325 kts 334°
2026-05-06 08:09 64.09083 -22.67352 4713 ft 408 kts 308°
2026-05-06 08:09 64.10395 -22.73604 5497 ft 465 kts 291°
2026-05-06 08:09 64.10965 -22.81269 6264 ft 512 kts 275°
2026-05-06 08:10 64.10670 -22.89583 7036 ft 534 kts 262°
2026-05-06 08:10 64.09714 -22.97838 7794 ft 541 kts 253°
2026-05-06 08:10 64.08325 -23.05847 8549 ft 542 kts 247°
2026-05-06 08:10 64.06593 -23.13376 9297 ft 523 kts 240°
2026-05-06 08:11 64.04672 -23.20037 10039 ft 484 kts 235°
2026-05-06 08:11 64.02690 -23.25929 10780 ft 453 kts 232°
2026-05-06 08:11 64.01351 -23.29565 11279 ft 435 kts 230°
2026-05-06 08:11 63.99418 -23.34509 12006 ft 412 kts 228°
2026-05-06 08:12 63.97513 -23.39162 12743 ft 391 kts 227°
2026-05-06 08:12 63.95684 -23.43519 13476 ft 371 kts 226°
2026-05-06 08:12 63.93937 -23.47637 14209 ft 352 kts 226°
2026-05-06 08:12 63.92287 -23.51522 14939 ft 331 kts 226°
2026-05-06 08:13 63.90739 -23.55180 15665 ft 313 kts 227°
2026-05-06 08:13 63.89236 -23.58763 16411 ft 317 kts 227°
2026-05-06 08:13 63.87688 -23.62499 17177 ft 334 kts 227°
2026-05-06 08:13 63.86059 -23.66484 17949 ft 356 kts 228°
2026-05-06 08:14 63.84331 -23.70758 18720 ft 379 kts 228°
2026-05-06 08:14 63.82508 -23.75304 19487 ft 401 kts 228°
2026-05-06 08:14 63.80597 -23.80095 20251 ft 420 kts 228°
2026-05-06 08:14 63.78600 -23.85115 21013 ft 438 kts 228°
2026-05-06 08:15 63.76527 -23.90332 21774 ft 452 kts 228°
2026-05-06 08:15 63.74416 -23.95645 22527 ft 453 kts 228°
2026-05-06 08:15 63.72332 -24.00882 23272 ft 445 kts 228°
2026-05-06 08:15 63.70280 -24.06033 24017 ft 436 kts 228°
2026-05-06 08:16 63.68269 -24.11069 24761 ft 428 kts 228°
2026-05-06 08:16 63.66301 -24.15988 25503 ft 418 kts 228°
2026-05-06 08:16 63.64373 -24.20798 26244 ft 408 kts 228°
2026-05-06 08:16 63.63843 -24.22119 26451 ft 405 kts 228°
2026-05-06 08:17 63.62832 -24.24636 26849 ft 399 kts 228°
2026-05-06 08:17 63.61221 -24.28641 27494 ft 389 kts 228°
2026-05-06 08:18 63.59904 -24.31908 27854 ft 378 kts 228°
2026-05-06 08:18 63.58167 -24.36210 28491 ft 365 kts 228°
2026-05-06 08:18 63.56496 -24.40342 29202 ft 347 kts 228°
2026-05-06 08:19 63.54939 -24.44184 29905 ft 327 kts 227°
2026-05-06 08:19 63.53465 -24.47815 30605 ft 302 kts 227°
2026-05-06 08:19 63.52121 -24.51120 31269 ft 272 kts 227°
2026-05-06 08:19 63.50900 -24.54191 31219 ft 265 kts 231°
2026-05-06 08:20 63.49625 -24.57598 28360 ft 314 kts 234°
2026-05-06 08:20 63.48079 -24.62036 24593 ft 423 kts 234°
2026-05-06 08:20 63.46327 -24.67357 25295 ft 430 kts 234°
2026-05-06 08:20 63.44661 -24.72589 27076 ft 318 kts 235°
2026-05-06 08:21 63.44027 -24.74497 32046 ft 75 kts 234°
2026-05-06 08:21 63.43715 -24.75416 31507 ft 86 kts 112°
2026-05-06 08:21 63.44120 -24.76413 24932 ft 74 kts 72°
2026-05-06 08:21 63.44751 -24.74866 14455 ft 281 kts 72°
2026-05-06 08:22 63.45339 -24.69158 10405 ft 372 kts 93°
2026-05-06 08:22 63.44754 -24.63832 12850 ft 353 kts 104°
2026-05-06 08:22 63.43552 -24.59055 13285 ft 350 kts 127°
2026-05-06 08:22 63.41684 -24.55843 13737 ft 334 kts 150°
2026-05-06 08:23 63.39469 -24.54654 14196 ft 326 kts 176°
2026-05-06 08:23 63.37272 -24.55595 14662 ft 323 kts 202°
2026-05-06 08:23 63.35380 -24.58282 15154 ft 324 kts 220°
2026-05-06 08:23 63.33875 -24.61955 15773 ft 320 kts 239°
2026-05-06 08:24 63.32977 -24.66450 16486 ft 317 kts 254°
2026-05-06 08:24 63.32416 -24.71183 17195 ft 318 kts 260°
2026-05-06 08:24 63.31975 -24.76065 17907 ft 325 kts 262°
2026-05-06 08:24 63.31570 -24.81049 18613 ft 331 kts 263°
2026-05-06 08:25 63.31158 -24.86171 19327 ft 342 kts 263°
2026-05-06 08:25 63.30720 -24.91481 20082 ft 356 kts 262°
2026-05-06 08:25 63.30243 -24.97006 20844 ft 372 kts 261°
2026-05-06 08:25 63.29669 -25.02717 21612 ft 383 kts 258°
2026-05-06 08:26 63.28929 -25.08461 22347 ft 391 kts 254°
2026-05-06 08:26 63.27999 -25.14213 22988 ft 399 kts 250°
2026-05-06 08:26 63.26894 -25.19913 23606 ft 404 kts 246°
2026-05-06 08:26 63.25641 -25.25528 24218 ft 407 kts 244°
2026-05-06 08:27 63.24276 -25.31032 24825 ft 410 kts 241°
2026-05-06 08:27 63.22809 -25.36490 25420 ft 413 kts 239°
2026-05-06 08:27 63.21260 -25.41913 25953 ft 419 kts 238°
2026-05-06 08:27 63.19641 -25.47327 26463 ft 424 kts 237°
2026-05-06 08:28 63.17959 -25.52758 26969 ft 429 kts 236°
2026-05-06 08:28 63.16236 -25.58173 27458 ft 433 kts 235°
2026-05-06 08:28 63.14474 -25.63602 27882 ft 437 kts 234°
2026-05-06 08:28 63.12666 -25.69088 28290 ft 445 kts 234°
2026-05-06 08:29 63.10814 -25.74648 28696 ft 455 kts 234°
2026-05-06 08:29 63.08908 -25.80322 29102 ft 465 kts 234°
2026-05-06 08:29 63.06953 -25.86098 29508 ft 473 kts 233°
2026-05-06 08:29 63.04964 -25.91946 29912 ft 479 kts 233°
2026-05-06 08:30 63.02974 -25.97768 30310 ft 484 kts 233°
2026-05-06 08:30 63.00941 -26.03696 30708 ft 488 kts 233°
2026-05-06 08:30 62.98882 -26.09675 31110 ft 492 kts 233°
2026-05-06 08:30 62.96778 -26.15769 31516 ft 497 kts 233°
2026-05-06 08:31 62.94708 -26.21747 31912 ft 498 kts 233°
2026-05-06 08:31 62.92608 -26.27792 32311 ft 497 kts 233°
2026-05-06 08:31 62.90449 -26.33684 32708 ft 494 kts 230°
2026-05-06 08:31 62.88171 -26.39269 33106 ft 491 kts 227°
2026-05-06 08:32 62.85811 -26.44658 33493 ft 490 kts 225°
2026-05-06 08:32 62.83388 -26.49944 33819 ft 493 kts 224°
2026-05-06 08:32 62.80911 -26.55191 34126 ft 498 kts 223°
2026-05-06 08:32 62.78391 -26.60432 34429 ft 502 kts 223°
2026-05-06 08:33 62.75839 -26.65679 34730 ft 505 kts 223°
2026-05-06 08:33 62.73275 -26.70914 35030 ft 507 kts 222°
2026-05-06 08:33 62.70688 -26.76173 35331 ft 509 kts 222°
2026-05-06 08:33 62.68088 -26.81441 35631 ft 511 kts 222°
2026-05-06 08:34 62.65478 -26.86722 35932 ft 512 kts 222°
2026-05-06 08:34 62.60238 -26.97300 36284 ft 519 kts 222°
2026-05-06 08:34 62.57608 -27.02598 36316 ft 507 kts 222°
2026-05-06 08:35 62.55083 -27.07685 36315 ft 483 kts 222°
2026-05-06 08:35 62.52685 -27.12508 36311 ft 460 kts 222°
2026-05-06 08:35 62.50393 -27.17113 36309 ft 439 kts 222°
2026-05-06 08:35 62.48197 -27.21516 36309 ft 423 kts 222°
2026-05-06 08:36 62.46054 -27.25801 36314 ft 417 kts 222°
2026-05-06 08:36 62.41756 -27.34366 36328 ft 429 kts 221°
2026-05-06 08:36 62.39532 -27.38786 36331 ft 440 kts 221°
2026-05-06 08:37 62.37247 -27.43319 36332 ft 452 kts 221°
2026-05-06 08:37 62.34907 -27.47953 36332 ft 464 kts 221°
2026-05-06 08:37 62.32502 -27.52711 36331 ft 474 kts 221°
2026-05-06 08:38 62.27573 -27.62440 36328 ft 487 kts 221°
2026-05-06 08:38 62.22601 -27.72221 36325 ft 487 kts 221°
2026-05-06 08:39 62.17588 -27.82045 36324 ft 485 kts 221°
2026-05-06 08:39 62.12598 -27.91778 36325 ft 486 kts 221°
2026-05-06 08:40 62.07624 -28.01435 36326 ft 486 kts 221°
2026-05-06 08:40 62.02609 -28.11126 36322 ft 486 kts 221°
2026-05-06 08:41 61.97589 -28.20782 36325 ft 486 kts 221°
2026-05-06 08:41 61.92563 -28.30402 36322 ft 486 kts 221°
2026-05-06 08:42 61.87533 -28.39987 36321 ft 486 kts 221°
2026-05-06 08:42 61.82490 -28.49548 36300 ft 486 kts 221°
2026-05-06 08:43 61.77440 -28.59079 36289 ft 486 kts 221°
2026-05-06 08:43 61.72398 -28.68557 36292 ft 486 kts 221°
2026-05-06 08:44 61.67338 -28.78022 36289 ft 486 kts 221°
2026-05-06 08:44 61.62280 -28.87441 36288 ft 486 kts 221°
2026-05-06 08:45 61.57208 -28.96844 36288 ft 486 kts 221°
2026-05-06 08:45 61.52128 -29.06217 36288 ft 486 kts 221°
2026-05-06 08:46 61.47051 -29.15544 36288 ft 486 kts 221°
2026-05-06 08:46 61.41968 -29.24839 36288 ft 486 kts 221°
2026-05-06 08:47 61.36871 -29.34118 36288 ft 486 kts 220°
2026-05-06 08:47 61.31767 -29.43366 36288 ft 486 kts 220°
2026-05-06 08:48 61.26691 -29.52523 36288 ft 486 kts 220°
2026-05-06 08:48 61.21550 -29.61757 36288 ft 486 kts 220°
2026-05-06 08:49 61.16461 -29.70856 36288 ft 486 kts 220°
2026-05-06 08:49 61.11339 -29.79971 36288 ft 486 kts 220°
2026-05-06 08:50 61.06204 -29.89070 36293 ft 486 kts 220°
2026-05-06 08:50 61.01144 -29.98294 36301 ft 486 kts 224°
2026-05-06 08:51 60.96643 -30.08693 36319 ft 486 kts 231°
2026-05-06 08:51 60.92479 -30.19677 36320 ft 487 kts 233°
2026-05-06 08:52 60.88436 -30.30838 36326 ft 486 kts 233°
2026-05-06 08:52 60.84429 -30.42009 36329 ft 487 kts 233°
2026-05-06 08:53 60.80408 -30.53180 36327 ft 487 kts 233°
2026-05-06 08:53 60.76377 -30.64291 36329 ft 487 kts 233°
2026-05-06 08:54 60.72346 -30.75304 36324 ft 487 kts 233°
2026-05-06 08:54 60.68269 -30.86356 36317 ft 487 kts 233°
2026-05-06 08:55 60.64182 -30.97351 36308 ft 487 kts 232°
2026-05-06 08:55 60.60071 -31.08337 36300 ft 487 kts 232°
2026-05-06 08:56 60.55952 -31.19274 36296 ft 488 kts 232°
2026-05-06 08:56 60.51812 -31.30204 36289 ft 488 kts 232°
2026-05-06 08:57 60.47661 -31.41105 36288 ft 488 kts 232°
2026-05-06 08:57 60.43504 -31.51963 36288 ft 488 kts 232°
2026-05-06 08:58 60.39329 -31.62813 36288 ft 488 kts 232°
2026-05-06 08:58 60.35152 -31.73617 36288 ft 488 kts 232°
2026-05-06 08:59 60.31671 -31.82580 36288 ft 488 kts 231°
2026-05-06 08:59 60.27472 -31.93345 36288 ft 488 kts 231°
2026-05-06 09:00 60.23269 -32.04068 36288 ft 488 kts 231°
2026-05-06 09:00 60.19052 -32.14777 36288 ft 488 kts 231°
2026-05-06 09:01 60.14833 -32.25442 36288 ft 488 kts 231°
2026-05-06 09:01 60.10596 -32.36103 36288 ft 488 kts 231°
2026-05-06 09:02 60.06358 -32.46718 36288 ft 488 kts 231°
2026-05-06 09:02 60.02110 -32.57307 36288 ft 488 kts 231°
2026-05-06 09:03 59.97849 -32.67882 36288 ft 488 kts 231°
2026-05-06 09:03 59.93585 -32.78416 36288 ft 488 kts 231°
2026-05-06 09:04 59.89308 -32.88934 36288 ft 488 kts 231°
2026-05-06 09:04 59.85029 -32.99407 36288 ft 488 kts 230°
2026-05-06 09:05 59.80737 -33.09869 36288 ft 488 kts 230°
2026-05-06 09:05 59.76440 -33.20292 36288 ft 488 kts 230°
2026-05-06 09:06 59.72132 -33.30698 36288 ft 488 kts 230°
2026-05-06 09:06 59.67847 -33.41002 36288 ft 488 kts 230°
2026-05-06 09:07 59.63518 -33.51364 36288 ft 488 kts 230°
2026-05-06 09:07 59.59188 -33.61683 36288 ft 488 kts 230°
2026-05-06 09:08 59.54850 -33.71975 36288 ft 488 kts 230°
2026-05-06 09:08 59.50504 -33.82240 36288 ft 488 kts 230°
2026-05-06 09:09 59.46143 -33.92497 36288 ft 488 kts 230°
2026-05-06 09:09 59.41781 -34.02709 36288 ft 488 kts 230°
2026-05-06 09:10 59.37411 -34.12896 36288 ft 488 kts 229°
2026-05-06 09:10 59.33028 -34.23071 36291 ft 488 kts 227°
2026-05-06 09:11 59.28652 -34.33200 36298 ft 487 kts 227°
2026-05-06 09:11 59.24274 -34.43276 36299 ft 486 kts 227°
2026-05-06 09:12 59.19892 -34.53310 36299 ft 486 kts 227°
2026-05-06 09:12 59.15526 -34.63264 36301 ft 485 kts 227°
2026-05-06 09:13 59.11106 -34.73298 36300 ft 485 kts 227°
2026-05-06 09:13 59.06710 -34.83236 36303 ft 485 kts 226°
2026-05-06 09:14 59.02324 -34.93130 36316 ft 482 kts 225°
2026-05-06 09:14 58.97974 -35.02887 36314 ft 479 kts 225°
2026-05-06 09:15 58.93615 -35.12618 36317 ft 477 kts 224°
2026-05-06 09:15 58.89269 -35.22277 36315 ft 475 kts 224°
2026-05-06 09:16 58.84931 -35.31877 36317 ft 473 kts 224°
2026-05-06 09:16 58.80602 -35.41419 36317 ft 471 kts 224°
2026-05-06 09:17 58.76280 -35.50905 36317 ft 470 kts 224°
2026-05-06 09:17 58.71980 -35.60301 36318 ft 472 kts 224°
2026-05-06 09:18 58.67601 -35.69830 36318 ft 472 kts 224°
2026-05-06 09:18 58.63247 -35.79268 36318 ft 472 kts 224°
2026-05-06 09:19 58.58895 -35.88667 36318 ft 472 kts 224°
2026-05-06 09:19 58.54557 -35.97997 36318 ft 472 kts 224°
2026-05-06 09:20 58.50184 -36.07368 36318 ft 472 kts 224°
2026-05-06 09:20 58.45805 -36.16711 36318 ft 472 kts 223°
2026-05-06 09:21 58.41413 -36.26047 36318 ft 472 kts 223°
2026-05-06 09:21 58.37022 -36.35343 36318 ft 472 kts 223°
2026-05-06 09:22 58.32624 -36.44616 36318 ft 472 kts 223°
2026-05-06 09:22 58.28219 -36.53866 36318 ft 472 kts 223°
2026-05-06 09:23 58.23809 -36.63090 36318 ft 472 kts 223°
2026-05-06 09:23 58.19423 -36.72229 36318 ft 472 kts 223°
2026-05-06 09:24 58.15000 -36.81406 36318 ft 472 kts 223°
2026-05-06 09:24 58.10572 -36.90558 36318 ft 471 kts 223°
2026-05-06 09:25 58.06137 -36.99689 36318 ft 471 kts 223°
2026-05-06 09:25 58.01696 -37.08795 36318 ft 471 kts 223°
2026-05-06 09:26 57.97249 -37.17879 36318 ft 471 kts 223°
2026-05-06 09:26 57.92796 -37.26938 36318 ft 471 kts 222°
2026-05-06 09:27 57.88367 -37.35914 36318 ft 471 kts 222°
2026-05-06 09:27 57.83878 -37.44976 36318 ft 471 kts 222°
2026-05-06 09:28 57.79436 -37.53908 36318 ft 471 kts 222°
2026-05-06 09:28 57.74958 -37.62877 36318 ft 471 kts 222°
2026-05-06 09:29 57.70474 -37.71824 36318 ft 471 kts 222°
2026-05-06 09:29 57.65989 -37.80737 36318 ft 471 kts 222°
2026-05-06 09:30 57.61494 -37.89635 36318 ft 471 kts 222°
2026-05-06 09:30 57.56991 -37.98516 36318 ft 471 kts 222°
2026-05-06 09:31 57.52516 -38.07308 36318 ft 471 kts 221°
2026-05-06 09:31 57.48005 -38.16136 36318 ft 471 kts 221°
2026-05-06 09:32 57.43489 -38.24942 36318 ft 471 kts 221°
2026-05-06 09:32 57.38966 -38.33725 36318 ft 471 kts 221°
2026-05-06 09:33 57.34437 -38.42488 36318 ft 471 kts 221°
2026-05-06 09:33 57.29906 -38.51222 36318 ft 471 kts 221°
2026-05-06 09:34 57.25368 -38.59934 36318 ft 471 kts 221°
2026-05-06 09:34 57.20826 -38.68624 36318 ft 470 kts 221°
2026-05-06 09:35 57.16278 -38.77291 36318 ft 470 kts 221°
2026-05-06 09:35 57.11716 -38.85950 36318 ft 470 kts 221°
2026-05-06 09:36 57.07157 -38.94573 36318 ft 470 kts 221°
2026-05-06 09:36 57.02592 -39.03174 36318 ft 470 kts 221°
2026-05-06 09:37 56.98015 -39.11767 36318 ft 470 kts 221°
2026-05-06 09:37 56.93439 -39.20324 36318 ft 470 kts 221°
2026-05-06 09:38 56.88858 -39.28859 36318 ft 470 kts 220°
2026-05-06 09:38 56.84272 -39.37372 36318 ft 470 kts 220°
2026-05-06 09:39 56.79673 -39.45877 36318 ft 470 kts 220°
2026-05-06 09:39 56.75107 -39.54291 36318 ft 470 kts 220°
2026-05-06 09:40 56.70505 -39.62739 36318 ft 470 kts 220°
2026-05-06 09:40 56.63588 -39.75378 36318 ft 470 kts 220°
2026-05-06 09:41 56.58973 -39.83772 36318 ft 470 kts 220°
2026-05-06 09:41 56.54353 -39.92145 36318 ft 470 kts 220°
2026-05-06 09:42 56.50035 -40.01086 36317 ft 477 kts 233°
2026-05-06 09:42 56.46991 -40.11820 36321 ft 483 kts 244°
2026-05-06 09:43 56.44586 -40.23180 36319 ft 484 kts 248°
2026-05-06 09:43 56.42401 -40.34701 36318 ft 485 kts 249°
2026-05-06 09:44 56.40260 -40.46241 36318 ft 485 kts 249°
2026-05-06 09:44 56.38101 -40.57762 36318 ft 485 kts 248°
2026-05-06 09:45 56.35905 -40.69250 36318 ft 485 kts 248°
2026-05-06 09:45 56.33684 -40.80648 36318 ft 484 kts 248°
2026-05-06 09:46 56.31404 -40.92148 36318 ft 484 kts 247°
2026-05-06 09:46 56.29112 -41.03544 36318 ft 484 kts 247°
2026-05-06 09:47 56.26795 -41.14921 36318 ft 484 kts 246°
2026-05-06 09:47 56.24476 -41.26197 36318 ft 484 kts 246°
2026-05-06 09:48 56.22124 -41.37528 36318 ft 484 kts 246°
2026-05-06 09:48 56.19754 -41.48861 36318 ft 484 kts 246°
2026-05-06 09:49 56.17374 -41.60160 36318 ft 484 kts 246°
2026-05-06 09:49 56.14982 -41.71438 36318 ft 484 kts 246°
2026-05-06 09:50 56.12579 -41.82698 36318 ft 484 kts 246°
2026-05-06 09:50 56.10164 -41.93948 36318 ft 484 kts 246°
2026-05-06 09:51 56.07739 -42.05177 36318 ft 484 kts 245°
2026-05-06 09:51 56.05713 -42.14508 36318 ft 484 kts 245°
2026-05-06 09:52 56.03269 -42.25710 36318 ft 484 kts 245°
2026-05-06 09:52 56.00811 -42.36914 36318 ft 484 kts 245°
2026-05-06 09:53 55.98346 -42.48085 36318 ft 483 kts 245°
2026-05-06 09:53 55.95872 -42.59240 36318 ft 483 kts 245°
2026-05-06 09:54 55.93388 -42.70380 36318 ft 483 kts 245°
2026-05-06 09:54 55.90890 -42.81523 36318 ft 483 kts 245°
2026-05-06 09:55 55.88385 -42.92632 36318 ft 483 kts 245°
2026-05-06 09:55 55.85872 -43.03726 36318 ft 483 kts 245°
2026-05-06 09:56 55.83348 -43.14804 36318 ft 483 kts 245°
2026-05-06 09:56 55.80827 -43.25812 36318 ft 483 kts 244°
2026-05-06 09:57 55.78284 -43.36860 36318 ft 483 kts 244°
2026-05-06 09:57 55.75732 -43.47892 36318 ft 483 kts 244°
2026-05-06 09:58 55.73169 -43.58909 36318 ft 483 kts 244°
2026-05-06 09:58 55.70593 -43.69930 36318 ft 483 kts 244°
2026-05-06 09:59 55.68011 -43.80916 36318 ft 483 kts 244°
2026-05-06 09:59 55.65420 -43.91887 36318 ft 483 kts 244°
2026-05-06 10:00 55.62816 -44.02859 36318 ft 483 kts 244°
2026-05-06 10:00 55.60206 -44.13797 36318 ft 483 kts 244°
2026-05-06 10:01 55.57588 -44.24711 36318 ft 483 kts 244°
2026-05-06 10:01 55.54958 -44.35627 36318 ft 483 kts 244°
2026-05-06 10:02 55.52318 -44.46525 36318 ft 483 kts 243°
2026-05-06 10:02 55.49665 -44.57422 36318 ft 483 kts 243°
2026-05-06 10:03 55.47008 -44.68281 36318 ft 483 kts 243°
2026-05-06 10:03 55.44342 -44.79122 36318 ft 483 kts 243°
2026-05-06 10:04 55.41662 -44.89971 36318 ft 483 kts 243°
2026-05-06 10:04 55.38976 -45.00788 36318 ft 482 kts 243°
2026-05-06 10:05 55.36281 -45.11586 36318 ft 482 kts 243°
2026-05-06 10:05 55.33575 -45.22377 36318 ft 482 kts 243°
2026-05-06 10:06 55.30879 -45.33077 36318 ft 482 kts 243°
2026-05-06 10:06 55.28155 -45.43834 36318 ft 482 kts 243°
2026-05-06 10:07 55.25424 -45.54571 36318 ft 482 kts 243°
2026-05-06 10:07 55.22682 -45.65295 36318 ft 482 kts 242°
2026-05-06 10:08 55.19930 -45.76009 36318 ft 482 kts 242°
2026-05-06 10:08 55.17170 -45.86702 36318 ft 482 kts 242°
2026-05-06 10:09 55.14400 -45.97383 36318 ft 482 kts 242°
2026-05-06 10:09 55.11620 -46.08049 36318 ft 482 kts 242°
2026-05-06 10:10 55.08836 -46.18683 36318 ft 482 kts 242°
2026-05-06 10:10 55.06056 -46.29253 36318 ft 482 kts 242°
2026-05-06 10:11 55.03252 -46.39860 36318 ft 482 kts 242°
2026-05-06 10:11 55.00436 -46.50465 36318 ft 482 kts 242°
2026-05-06 10:12 54.97607 -46.61071 36318 ft 482 kts 242°
2026-05-06 10:12 54.94769 -46.71657 36318 ft 482 kts 241°
2026-05-06 10:13 54.91925 -46.82219 36318 ft 482 kts 241°
2026-05-06 10:13 54.89075 -46.92756 36318 ft 482 kts 241°
2026-05-06 10:14 54.86211 -47.03292 36318 ft 482 kts 241°
2026-05-06 10:14 54.83338 -47.13818 36318 ft 482 kts 241°
2026-05-06 10:15 54.80453 -47.24336 36318 ft 482 kts 241°
2026-05-06 10:15 54.77565 -47.34816 36318 ft 482 kts 241°
2026-05-06 10:16 54.74667 -47.45289 36318 ft 482 kts 241°
2026-05-06 10:16 54.71755 -47.55759 36318 ft 482 kts 240°
2026-05-06 10:17 54.68858 -47.66133 36318 ft 482 kts 240°
2026-05-06 10:17 54.65933 -47.76556 36318 ft 482 kts 240°
2026-05-06 10:18 54.63001 -47.86960 36318 ft 482 kts 240°
2026-05-06 10:18 54.60058 -47.97357 36318 ft 482 kts 240°
2026-05-06 10:19 54.57106 -48.07737 36318 ft 482 kts 240°
2026-05-06 10:19 54.54147 -48.18096 36318 ft 482 kts 240°
2026-05-06 10:20 54.51181 -48.28436 36318 ft 482 kts 240°
2026-05-06 10:20 54.48205 -48.38762 36318 ft 482 kts 240°
2026-05-06 10:21 54.45219 -48.49078 36318 ft 482 kts 240°
2026-05-06 10:21 54.42224 -48.59382 36318 ft 482 kts 240°
2026-05-06 10:22 54.39221 -48.69663 36318 ft 482 kts 239°
2026-05-06 10:22 54.36214 -48.79919 36318 ft 482 kts 239°
2026-05-06 10:23 54.33194 -48.90171 36318 ft 482 kts 239°
2026-05-06 10:23 54.30167 -49.00403 36318 ft 482 kts 239°
2026-05-06 10:24 54.27130 -49.10621 36318 ft 482 kts 239°
2026-05-06 10:24 54.24086 -49.20822 36318 ft 481 kts 239°
2026-05-06 10:25 54.21032 -49.31014 36318 ft 481 kts 239°
2026-05-06 10:25 54.17973 -49.41177 36318 ft 481 kts 239°
2026-05-06 10:26 54.14902 -49.51333 36318 ft 481 kts 239°
2026-05-06 10:26 54.11827 -49.61462 36318 ft 481 kts 239°
2026-05-06 10:27 54.08760 -49.71522 36318 ft 481 kts 239°
2026-05-06 10:27 54.05664 -49.81630 36318 ft 481 kts 239°
2026-05-06 10:28 54.02561 -49.91717 36318 ft 481 kts 238°
2026-05-06 10:28 53.99602 -50.01941 36319 ft 483 kts 242°
2026-05-06 10:29 53.96913 -50.12400 36318 ft 484 kts 244°
2026-05-06 10:29 53.94326 -50.22951 36318 ft 484 kts 244°
2026-05-06 10:30 53.91767 -50.33523 36318 ft 484 kts 244°
2026-05-06 10:30 53.89216 -50.44064 36318 ft 484 kts 244°
2026-05-06 10:31 53.87935 -50.49315 36372 ft 473 kts 247°
2026-05-06 10:31 53.86690 -50.54393 36278 ft 461 kts 247°
2026-05-06 10:31 53.85473 -50.59362 36114 ft 452 kts 247°
2026-05-06 10:31 53.84282 -50.64216 35945 ft 442 kts 247°
2026-05-06 10:32 53.83111 -50.68978 35819 ft 433 kts 247°
2026-05-06 10:32 53.81962 -50.73635 35768 ft 426 kts 247°
2026-05-06 10:32 53.79707 -50.82743 35754 ft 415 kts 246°
2026-05-06 10:33 53.77473 -50.91708 35756 ft 413 kts 246°
2026-05-06 10:33 53.75238 -51.00628 35756 ft 412 kts 246°
2026-05-06 10:34 53.72999 -51.09519 35757 ft 411 kts 246°
2026-05-06 10:34 53.70752 -51.18399 35757 ft 411 kts 246°
2026-05-06 10:35 53.68499 -51.27266 35757 ft 411 kts 246°
2026-05-06 10:35 53.66239 -51.36124 35757 ft 411 kts 246°
2026-05-06 10:36 53.63973 -51.44968 35757 ft 411 kts 246°
2026-05-06 10:36 53.61702 -51.53797 35757 ft 411 kts 246°
2026-05-06 10:37 53.59438 -51.62565 35757 ft 410 kts 246°
2026-05-06 10:37 53.57159 -51.71356 35757 ft 410 kts 246°
2026-05-06 10:38 53.54871 -51.80145 35756 ft 410 kts 246°
2026-05-06 10:38 53.52581 -51.88906 35757 ft 409 kts 246°
2026-05-06 10:39 53.50281 -51.97675 35757 ft 411 kts 246°
2026-05-06 10:39 53.47969 -52.06455 35757 ft 411 kts 245°
2026-05-06 10:40 53.45646 -52.15241 35757 ft 411 kts 245°
2026-05-06 10:40 53.43324 -52.23991 35757 ft 411 kts 245°
2026-05-06 10:41 53.40995 -52.32732 35757 ft 411 kts 245°
2026-05-06 10:41 53.38655 -52.41483 35757 ft 411 kts 245°
2026-05-06 10:42 53.36707 -52.48742 35757 ft 411 kts 245°
2026-05-06 10:42 53.34356 -52.57469 35757 ft 411 kts 245°
2026-05-06 10:43 53.32001 -52.66183 35757 ft 411 kts 245°
2026-05-06 10:44 53.28457 -52.79230 35757 ft 411 kts 245°
2026-05-06 10:44 53.26085 -52.87921 35757 ft 411 kts 245°
2026-05-06 10:45 53.23706 -52.96603 35757 ft 411 kts 245°
2026-05-06 10:45 53.21322 -53.05272 35757 ft 411 kts 245°
2026-05-06 10:46 53.18933 -53.13931 35757 ft 411 kts 245°
2026-05-06 10:46 53.16534 -53.22589 35757 ft 411 kts 245°
2026-05-06 10:47 53.14148 -53.31170 35757 ft 411 kts 245°
2026-05-06 10:47 53.11723 -53.39856 35757 ft 411 kts 245°
2026-05-06 10:48 53.09328 -53.48406 35757 ft 411 kts 244°
2026-05-06 10:48 53.06902 -53.57035 35757 ft 411 kts 244°
2026-05-06 10:49 53.04474 -53.65637 35757 ft 411 kts 244°
2026-05-06 10:49 53.02039 -53.74233 35757 ft 411 kts 244°
2026-05-06 10:50 52.99600 -53.82814 35757 ft 411 kts 244°
2026-05-06 10:50 52.97158 -53.91372 35757 ft 411 kts 244°
2026-05-06 10:51 52.94700 -53.99955 35757 ft 411 kts 244°
2026-05-06 10:51 52.92241 -54.08536 35678 ft 414 kts 242°
2026-05-06 10:52 52.89750 -54.17175 35642 ft 417 kts 242°
2026-05-06 10:52 52.87230 -54.25868 35639 ft 420 kts 242°
2026-05-06 10:53 52.84695 -54.34582 35639 ft 421 kts 242°
2026-05-06 10:53 52.82166 -54.43246 35639 ft 421 kts 241°
2026-05-06 10:54 52.79613 -54.51965 35639 ft 421 kts 241°
2026-05-06 10:54 52.77054 -54.60671 35639 ft 421 kts 241°
2026-05-06 10:55 52.74492 -54.69360 35638 ft 421 kts 241°
2026-05-06 10:55 52.71915 -54.78066 35638 ft 421 kts 241°
2026-05-06 10:56 52.69341 -54.86731 35638 ft 421 kts 241°
2026-05-06 10:56 52.66751 -54.95417 35638 ft 421 kts 241°
2026-05-06 10:57 52.64165 -55.04058 35638 ft 421 kts 241°
2026-05-06 10:57 52.61584 -55.12653 35638 ft 421 kts 241°
2026-05-06 10:58 52.58981 -55.21289 35638 ft 421 kts 241°
2026-05-06 10:58 52.56371 -55.29916 35638 ft 421 kts 241°
2026-05-06 10:59 52.53756 -55.38532 35638 ft 421 kts 240°
2026-05-06 10:59 52.51134 -55.47137 35638 ft 421 kts 240°
2026-05-06 11:00 52.48505 -55.55733 35638 ft 421 kts 240°
2026-05-06 11:00 52.45872 -55.64315 35638 ft 421 kts 240°
2026-05-06 11:01 52.43229 -55.72897 35638 ft 421 kts 240°
2026-05-06 11:01 52.40542 -55.81134 35639 ft 420 kts 236°
2026-05-06 11:02 52.37292 -55.89055 35640 ft 419 kts 232°
2026-05-06 11:02 52.33832 -55.96695 35639 ft 418 kts 231°
2026-05-06 11:03 52.30296 -56.04244 35638 ft 418 kts 230°
2026-05-06 11:03 52.26740 -56.11753 35638 ft 418 kts 230°
2026-05-06 11:04 52.23200 -56.19197 35638 ft 418 kts 230°
2026-05-06 11:04 52.19634 -56.26683 35638 ft 418 kts 230°
2026-05-06 11:05 52.16067 -56.34159 35638 ft 418 kts 230°
2026-05-06 11:05 52.12495 -56.41630 35638 ft 418 kts 230°
2026-05-06 11:06 52.08922 -56.49087 35638 ft 418 kts 230°
2026-05-06 11:06 52.05346 -56.56535 35638 ft 418 kts 230°
2026-05-06 11:07 52.01765 -56.63974 35638 ft 418 kts 230°
2026-05-06 11:07 51.98181 -56.71398 35638 ft 418 kts 230°
2026-05-06 11:08 51.94593 -56.78812 35638 ft 418 kts 230°
2026-05-06 11:08 51.91001 -56.86212 35638 ft 418 kts 230°
2026-05-06 11:09 51.87403 -56.93603 35638 ft 418 kts 230°
2026-05-06 11:09 51.83803 -57.00980 35638 ft 418 kts 230°
2026-05-06 11:10 51.80201 -57.08337 35638 ft 418 kts 230°
2026-05-06 11:10 51.76610 -57.15653 35638 ft 418 kts 229°
2026-05-06 11:11 51.72974 -57.23039 35638 ft 418 kts 229°
2026-05-06 11:11 51.69378 -57.30323 35638 ft 418 kts 229°
2026-05-06 11:12 51.65731 -57.37649 35739 ft 414 kts 233°
2026-05-06 11:12 51.62139 -57.44869 35779 ft 412 kts 234°
2026-05-06 11:13 51.58580 -57.52023 35782 ft 412 kts 234°
2026-05-06 11:13 51.55003 -57.59198 35782 ft 410 kts 233°
2026-05-06 11:14 51.51436 -57.66331 35782 ft 409 kts 233°
2026-05-06 11:14 51.47873 -57.73435 35782 ft 408 kts 233°
2026-05-06 11:15 51.44310 -57.80517 35783 ft 408 kts 233°
2026-05-06 11:15 51.40743 -57.87587 35783 ft 408 kts 233°
2026-05-06 11:16 51.37169 -57.94648 35783 ft 408 kts 233°
2026-05-06 11:16 51.33594 -58.01694 35783 ft 408 kts 233°
2026-05-06 11:17 51.30014 -58.08728 35784 ft 408 kts 233°
2026-05-06 11:17 51.26430 -58.15751 35784 ft 408 kts 233°
2026-05-06 11:18 51.22843 -58.22759 35784 ft 408 kts 233°
2026-05-06 11:18 51.19268 -58.29726 35784 ft 408 kts 233°
2026-05-06 11:19 51.15670 -58.36717 35784 ft 408 kts 233°